This is the latest recevied weather packets stored in our database for station/object EA1PYE-10. If no packets are shown the sender has not sent any weather packets the latest 10 day(s).
| Time | Temp. | Humidity | Pressure | Rain* | Wind** | Luminosity | Snow |
|---|---|---|---|---|---|---|---|
| 1787604337 | 21.67° C | 57% | 1010.8 hPa | - | - | - | - |
| 1787602537 | 21.67° C | 57% | 1010.2 hPa | - | - | - | - |
| 1787600737 | 21.67° C | 57% | 1009.7 hPa | - | - | - | - |
| 1787598937 | 21.67° C | 56% | 1009.1 hPa | - | - | - | - |
| 1787597137 | 21.67° C | 57% | 1008.7 hPa | - | - | - | - |
| 1787595337 | 21.11° C | 57% | 1008.3 hPa | - | - | - | - |
| 1787593537 | 21.11° C | 59% | 1008.3 hPa | - | - | - | - |
| 1787591736 | 21.11° C | 59% | 1008.3 hPa | - | - | - | - |
| 1787589936 | 21.11° C | 60% | 1008.5 hPa | - | - | - | - |
| 1787588136 | 21.11° C | 59% | 1008.8 hPa | - | - | - | - |
| 1787586336 | 21.11° C | 58% | 1009.1 hPa | - | - | - | - |
| 1787584536 | 21.11° C | 57% | 1009.1 hPa | - | - | - | - |
| 1787582736 | 21.11° C | 56% | 1009.4 hPa | - | - | - | - |
| 1787580936 | 21.11° C | 51% | 1009.2 hPa | - | - | - | - |
| 1787579136 | 21.11° C | 49% | 1008.8 hPa | - | - | - | - |
| 1787577336 | 21.11° C | 49% | 1008.6 hPa | - | - | - | - |
| 1787575536 | 21.67° C | 43% | 1008.2 hPa | - | - | - | - |
| 1787573736 | 21.67° C | 44% | 1008.3 hPa | - | - | - | - |
| 1787571936 | 21.11° C | 47% | 1008.5 hPa | - | - | - | - |
| 1787570136 | 21.11° C | 49% | 1008.7 hPa | - | - | - | - |
| 1787568335 | 21.11° C | 52% | 1009.3 hPa | - | - | - | - |
| 1787566535 | 21.67° C | 50% | 1009.4 hPa | - | - | - | - |
| 1787564736 | 21.11° C | 51% | 1009.6 hPa | - | - | - | - |
| 1787562935 | 21.67° C | 51% | 1009.5 hPa | - | - | - | - |
| 1787561135 | 21.11° C | 50% | 1009.3 hPa | - | - | - | - |
* Rain since midnight (hover to see other rain measurements)
** Current wind speed in m/s (hover to see current wind gust speed)